Вернуться в каталог

STARLINK-35177

АктивенСвязьSSO
NORAD 65673·PAYLOAD·🇺🇸 United States

Запущен Sep 19, 2025 с Vandenberg Space Force Base

Loading…

Ближайшие Пролёты (ближайшие 24 часа)

TLE

СвежийSource: CelesTrak SupGP

Эпоха: Sep 15, 2026, 04:15 UTC

1 65673C 25211X   26258.17756944 -.00052947  00000+0 -16436-2 0  2582
2 65673  97.2834 298.5209 0000858  96.2493 124.3860 15.33467480    17

Отслеживайте STARLINK-35177 в реальном времени с AllMySat

Download on the App Store